TimeCDT,TemperatureF,Dew PointF,Humidity,Sea Level PressureIn,VisibilityMPH,Wind Direction,Wind SpeedMPH,Gust SpeedMPH,PrecipitationIn,Events,Conditions,WindDirDegrees,DateUTC
12:15 AM,73.4,62.6,69,29.75,10.0,South,17.3,24.2,N/A,,Clear,180,2012-10-25 05:15:00
12:35 AM,73.4,62.6,69,29.75,10.0,South,13.8,18.4,N/A,,Clear,190,2012-10-25 05:35:00
12:55 AM,73.4,62.6,69,29.75,10.0,South,15.0,20.7,N/A,,Clear,180,2012-10-25 05:55:00
1:15 AM,73.4,64.4,73,29.77,10.0,South,11.5,17.3,N/A,,Clear,190,2012-10-25 06:15:00
1:35 AM,73.4,64.4,73,29.77,10.0,South,11.5,-,N/A,,Clear,190,2012-10-25 06:35:00
1:55 AM,73.4,64.4,73,29.77,10.0,South,13.8,-,N/A,,Clear,180,2012-10-25 06:55:00
2:35 AM,71.6,62.6,73,29.77,10.0,South,11.5,18.4,N/A,,Clear,180,2012-10-25 07:35:00
2:55 AM,71.6,62.6,73,29.78,10.0,South,11.5,17.3,N/A,,Clear,190,2012-10-25 07:55:00
3:15 AM,71.6,62.6,73,29.78,10.0,South,13.8,18.4,N/A,,Clear,190,2012-10-25 08:15:00
3:35 AM,71.6,64.4,78,29.77,10.0,South,12.7,-,N/A,,Clear,180,2012-10-25 08:35:00
3:55 AM,71.6,64.4,78,29.77,10.0,South,13.8,-,N/A,,Clear,170,2012-10-25 08:55:00
4:15 AM,71.6,64.4,78,29.77,10.0,South,12.7,18.4,N/A,,Clear,180,2012-10-25 09:15:00
4:55 AM,71.6,64.4,78,29.78,10.0,South,12.7,-,N/A,,Clear,180,2012-10-25 09:55:00
5:15 AM,71.6,64.4,78,29.77,10.0,South,15.0,19.6,N/A,,Clear,180,2012-10-25 10:15:00
5:35 AM,71.6,64.4,78,29.78,10.0,South,13.8,21.9,N/A,,Clear,190,2012-10-25 10:35:00
5:55 AM,71.6,64.4,78,29.78,10.0,South,15.0,19.6,N/A,,Scattered Clouds,180,2012-10-25 10:55:00
6:55 AM,71.6,64.4,78,29.77,10.0,South,13.8,19.6,N/A,,Clear,190,2012-10-25 11:55:00
7:15 AM,71.6,64.4,78,29.77,10.0,South,16.1,26.5,N/A,,Clear,190,2012-10-25 12:15:00
7:35 AM,71.6,64.4,78,29.78,10.0,South,15.0,23.0,N/A,,Clear,190,2012-10-25 12:35:00
7:55 AM,71.6,64.4,78,29.80,10.0,SSW,16.1,26.5,N/A,,Scattered Clouds,200,2012-10-25 12:55:00
9:15 AM,71.6,64.4,78,29.83,10.0,SSW,15.0,20.7,N/A,,Mostly Cloudy,200,2012-10-25 14:15:00
9:55 AM,71.6,64.4,78,29.85,10.0,SSW,16.1,24.2,N/A,,Mostly Cloudy,210,2012-10-25 14:55:00
10:15 AM,73.4,64.4,73,29.86,10.0,SSW,10.4,19.6,N/A,,Mostly Cloudy,210,2012-10-25 15:15:00
10:35 AM,73.4,62.6,69,29.89,10.0,NW,21.9,29.9,N/A,,Mostly Cloudy,310,2012-10-25 15:35:00
10:55 AM,59.0,53.6,82,29.92,7.0,WNW,12.7,20.7,N/A,Rain,Light Rain,290,2012-10-25 15:55:00
11:15 AM,57.2,51.8,82,29.94,10.0,NW,18.4,24.2,N/A,,Mostly Cloudy,310,2012-10-25 16:15:00
11:35 AM,57.2,50.0,77,29.96,10.0,NW,12.7,19.6,N/A,,Mostly Cloudy,310,2012-10-25 16:35:00
11:55 AM,55.4,46.4,72,29.97,10.0,NW,18.4,28.8,N/A,,Mostly Cloudy,320,2012-10-25 16:55:00
12:15 PM,53.6,46.4,77,29.98,10.0,NW,11.5,21.9,N/A,,Mostly Cloudy,320,2012-10-25 17:15:00
12:35 PM,53.6,44.6,72,29.99,10.0,NNW,19.6,29.9,N/A,,Overcast,330,2012-10-25 17:35:00
12:55 PM,53.6,44.6,72,30.00,10.0,NNW,17.3,23.0,N/A,,Overcast,340,2012-10-25 17:55:00
1:15 PM,53.6,44.6,72,30.00,10.0,NNW,19.6,24.2,N/A,,Mostly Cloudy,330,2012-10-25 18:15:00
1:55 PM,55.4,42.8,63,30.01,10.0,NNW,19.6,28.8,N/A,,Mostly Cloudy,340,2012-10-25 18:55:00
2:15 PM,55.4,42.8,63,30.01,10.0,North,17.3,23.0,N/A,,Overcast,350,2012-10-25 19:15:00
2:35 PM,55.4,42.8,63,30.02,10.0,NW,16.1,25.3,N/A,,Overcast,320,2012-10-25 19:35:00
2:55 PM,55.4,42.8,63,30.03,10.0,NNW,16.1,23.0,N/A,,Overcast,330,2012-10-25 19:55:00
3:15 PM,55.4,41.0,58,30.04,10.0,NNW,15.0,25.3,N/A,,Overcast,340,2012-10-25 20:15:00
3:35 PM,55.4,41.0,58,30.04,10.0,North,19.6,23.0,N/A,,Overcast,360,2012-10-25 20:35:00
3:55 PM,55.4,41.0,58,30.05,10.0,NNW,17.3,25.3,N/A,,Overcast,340,2012-10-25 20:55:00
4:35 PM,53.6,41.0,62,30.07,10.0,North,15.0,20.7,N/A,,Overcast,350,2012-10-25 21:35:00
4:55 PM,51.8,39.2,62,30.07,10.0,North,13.8,20.7,N/A,,Overcast,350,2012-10-25 21:55:00
5:35 PM,51.8,37.4,58,30.08,10.0,North,15.0,19.6,N/A,,Mostly Cloudy,360,2012-10-25 22:35:00
5:55 PM,51.8,37.4,58,30.10,10.0,North,11.5,-,N/A,,Scattered Clouds,10,2012-10-25 22:55:00
6:15 PM,51.8,37.4,58,30.11,10.0,North,13.8,19.6,N/A,,Scattered Clouds,10,2012-10-25 23:15:00
6:35 PM,50.0,37.4,62,30.12,10.0,NNE,9.2,-,N/A,,Scattered Clouds,20,2012-10-25 23:35:00
6:55 PM,50.0,37.4,62,30.12,10.0,North,3.5,-,N/A,,Mostly Cloudy,360,2012-10-25 23:55:00
7:15 PM,51.8,37.4,58,30.13,10.0,North,12.7,16.1,N/A,,Overcast,360,2012-10-26 00:15:00
7:35 PM,51.8,37.4,58,30.13,10.0,North,13.8,-,N/A,,Overcast,10,2012-10-26 00:35:00
8:15 PM,51.8,37.4,58,30.15,10.0,North,17.3,23.0,N/A,,Overcast,10,2012-10-26 01:15:00
8:35 PM,51.8,37.4,58,30.16,10.0,North,16.1,27.6,N/A,,Overcast,10,2012-10-26 01:35:00
8:55 PM,51.8,37.4,58,30.17,10.0,NNE,16.1,21.9,N/A,,Overcast,30,2012-10-26 01:55:00
9:15 PM,51.8,37.4,58,30.17,10.0,North,19.6,25.3,N/A,,Overcast,10,2012-10-26 02:15:00
9:35 PM,50.0,37.4,62,30.18,10.0,North,18.4,25.3,N/A,,Mostly Cloudy,10,2012-10-26 02:35:00
9:55 PM,50.0,37.4,62,30.18,10.0,NNE,12.7,-,N/A,,Scattered Clouds,20,2012-10-26 02:55:00
10:15 PM,48.2,37.4,66,30.19,10.0,North,10.4,-,N/A,,Clear,10,2012-10-26 03:15:00
10:55 PM,46.4,37.4,71,30.20,10.0,NNE,9.2,-,N/A,,Clear,20,2012-10-26 03:55:00
11:15 PM,46.4,37.4,71,30.20,10.0,NNE,10.4,-,N/A,,Clear,20,2012-10-26 04:15:00
11:35 PM,46.4,37.4,71,30.20,10.0,North,15.0,-,N/A,,Clear,10,2012-10-26 04:35:00
11:55 PM,46.4,35.6,66,30.20,10.0,NNE,13.8,-,N/A,,Clear,20,2012-10-26 04:55:00